Date String (YYYY-MM-DD hh:mm:ss) UTC,Instrument flags,absolute air pressure of the measurement (hPa),sample flow rate (lpm),inlet stack bypass flow (lpm),air temperature of the measurement (°C),ambient temperature measured by the external sensor (°C),aerosol sample conditioner tube jacket temperature (°C),OPC LED temperature (°C),internal box temperature (°C),relative humidity of the measurement (%),span deviation,mass concentration of particles derived from Lorenz-Mie calculation of OPC scattering (μg/m³),mass concentration of particles derived from Lorenz-Mie calculation of OPC scattering (μg/m³),mass concentration of particles derived from Lorenz-Mie calculation of OPC scattering (μg/m³)
DateTimeUTC,F1_M11,P_M11,Q1_M11,Q2_M11,T1_M11,T2_M11,T3_M11,T4_M11,T5_M11,U1_M11,ZSPAN_M11,X0_M11,X2_M11,X1_M11
2023-09-14 22:00:00,SystemResetWarning,0833.2,4.99,000.00,028.1,026.9,000.0,036.5,029.9,32.2,0000.0,0014.37,0004.79,0004.02
2023-09-14 22:01:00,SystemResetWarning,0833.2,5.00,000.00,028.2,027.0,000.0,036.5,029.9,32.5,0000.0,0013.63,0004.79,0004.03
2023-09-14 22:02:00,SystemResetWarning,0833.2,5.00,000.00,028.2,027.1,000.0,036.5,030.0,32.2,0000.0,0013.66,0004.78,0004.02
2023-09-14 22:03:00,SystemResetWarning,0833.2,5.01,000.00,028.3,027.1,000.0,036.5,030.0,32.2,0000.0,0013.01,0004.84,0004.03
2023-09-14 22:04:00,SystemResetWarning,0833.2,5.00,000.00,028.3,027.2,000.0,036.5,030.0,32.3,0000.0,0012.58,0004.86,0004.03
2023-09-14 22:05:00,SystemResetWarning,0833.2,5.00,000.00,028.3,027.3,000.0,036.5,030.1,32.2,0000.0,0011.53,0004.86,0004.03
2023-09-14 22:06:00,SystemResetWarning,0833.2,5.00,000.00,028.4,027.3,000.0,036.6,030.1,32.1,0000.0,0010.83,0004.87,0004.04
2023-09-14 22:07:00,SystemResetWarning,0833.2,5.00,000.00,028.4,027.4,000.0,036.6,030.2,31.9,0000.0,0010.25,0004.86,0004.04
2023-09-14 22:08:00,SystemResetWarning,0833.2,4.99,000.00,028.4,027.4,000.0,036.6,030.2,31.7,0000.0,0010.12,0004.84,0004.06
2023-09-14 22:09:00,SystemResetWarning,0833.2,5.00,000.00,028.5,027.4,000.0,036.7,030.2,31.0,0000.0,0010.62,0004.80,0004.07
2023-09-14 22:10:00,SystemResetWarning,0833.2,5.00,000.00,028.5,027.5,000.0,036.7,030.3,31.0,0000.0,0010.65,0004.83,0004.08
2023-09-14 22:11:00,SystemResetWarning,0833.2,4.99,000.00,028.5,027.5,000.0,036.7,030.3,31.1,0000.0,0010.47,0004.88,0004.09
2023-09-14 22:12:00,SystemResetWarning,0833.2,5.00,000.00,028.6,027.5,000.0,036.7,030.3,31.1,0000.0,0010.59,0004.88,0004.09
2023-09-14 22:13:00,SystemResetWarning,0833.2,5.00,000.00,028.6,027.6,000.0,036.8,030.3,31.4,0000.0,0011.12,0004.92,0004.10
2023-09-14 22:14:00,SystemResetWarning,0833.2,5.00,000.00,028.6,027.6,000.0,036.8,030.4,31.4,0000.0,0011.07,0004.87,0004.10
2023-09-14 22:15:00,SystemResetWarning,0833.2,4.99,000.00,028.6,027.6,000.0,036.8,030.4,31.5,0000.0,0011.11,0004.87,0004.10
2023-09-14 22:16:00,SystemResetWarning,0833.2,5.00,000.00,028.7,027.6,000.0,036.8,030.4,31.8,0000.0,0011.11,0004.89,0004.11
2023-09-14 22:17:00,SystemResetWarning,0833.2,5.00,000.00,028.7,027.6,000.0,036.9,030.4,31.9,0000.0,0011.01,0004.91,0004.12
2023-09-14 22:18:00,SystemResetWarning,0833.3,5.00,000.00,028.7,027.7,000.0,036.9,030.5,32.1,0000.0,0011.62,0004.95,0004.12
2023-09-14 22:19:00,SystemResetWarning,0833.3,5.00,000.00,028.8,027.7,000.0,036.9,030.5,32.1,0000.0,0012.11,0004.99,0004.12
2023-09-14 22:20:00,SystemResetWarning,0833.3,5.00,000.00,028.8,027.7,000.0,036.9,030.5,32.0,0000.0,0012.36,0005.04,0004.14
2023-09-14 22:21:00,SystemResetWarning,0833.3,5.00,000.00,028.8,027.7,000.0,036.9,030.5,31.8,0000.0,0012.05,0005.03,0004.15
2023-09-14 22:22:00,SystemResetWarning,0833.4,5.00,000.00,028.8,027.7,000.0,037.0,030.6,31.5,0000.0,0012.14,0005.03,0004.16
2023-09-14 22:23:00,SystemResetWarning,0833.4,5.00,000.00,028.9,027.8,000.0,037.0,030.6,31.6,0000.0,0012.06,0005.06,0004.17
2023-09-14 22:24:00,SystemResetWarning,0833.4,5.00,000.00,028.9,027.8,000.0,037.0,030.6,31.8,0000.0,0011.51,0005.01,0004.18
2023-09-14 22:25:00,SystemResetWarning,0833.4,5.00,000.00,028.9,027.8,000.0,037.1,030.6,31.6,0000.0,0011.48,0005.03,0004.19
2023-09-14 22:26:00,SystemResetWarning,0833.4,4.99,000.00,028.9,027.5,000.0,037.1,030.5,31.0,0000.0,0011.51,0005.05,0004.20
2023-09-14 22:27:00,SystemResetWarning,0833.4,5.00,000.00,028.8,025.8,000.0,037.0,030.0,30.4,0000.0,0011.43,0005.04,0004.20
2023-09-14 22:28:00,SystemResetWarning,0833.4,5.01,000.00,028.7,024.7,000.0,037.0,029.8,30.5,0000.0,0011.42,0005.04,0004.21
2023-09-14 22:29:00,SystemResetWarning,0833.4,5.01,000.00,028.5,024.6,000.0,036.9,029.6,30.8,0000.0,0011.00,0005.01,0004.22
2023-09-14 22:30:00,SystemResetWarning,0833.5,5.00,000.00,028.4,024.9,000.0,036.9,029.6,31.1,0000.0,0010.81,0005.01,0004.21
2023-09-14 22:31:00,SystemResetWarning,0833.6,4.99,000.00,028.4,025.2,000.0,036.9,029.7,30.9,0000.0,0010.32,0004.96,0004.19
2023-09-14 22:32:00,SystemResetWarning,0833.5,5.00,000.00,028.4,025.6,000.0,036.9,029.8,30.9,0000.0,0010.30,0004.91,0004.16
2023-09-14 22:33:00,SystemResetWarning,0833.6,4.99,000.00,028.4,025.9,000.0,036.9,029.9,30.7,0000.0,0009.68,0004.85,0004.14
2023-09-14 22:34:00,SystemResetWarning,0833.5,4.99,000.00,028.4,026.2,000.0,036.9,029.9,30.4,0000.0,0009.75,0004.81,0004.12
2023-09-14 22:35:00,SystemResetWarning,0833.6,5.00,000.00,028.4,026.4,000.0,036.8,030.0,30.2,0000.0,0009.81,0004.83,0004.11
2023-09-14 22:36:00,SystemResetWarning,0833.5,5.01,000.00,028.4,026.6,000.0,036.8,030.0,30.2,0000.0,0009.87,0004.80,0004.10
2023-09-14 22:37:00,SystemResetWarning,0833.6,5.01,000.00,028.4,026.7,000.0,036.8,030.0,30.1,0000.0,0010.81,0004.75,0004.08
2023-09-14 22:38:00,SystemResetWarning,0833.5,5.00,000.00,028.4,026.8,000.0,036.8,030.0,30.1,0000.0,0010.96,0004.71,0004.07
2023-09-14 22:39:00,SystemResetWarning,0833.6,4.99,000.00,028.4,026.9,000.0,036.8,030.1,30.2,0000.0,0010.90,0004.68,0004.06
2023-09-14 22:40:00,SystemResetWarning,0833.5,4.99,000.00,028.5,027.0,000.0,036.8,030.1,30.1,0000.0,0010.79,0004.65,0004.04
2023-09-14 22:41:00,SystemResetWarning,0833.6,4.99,000.00,028.5,027.1,000.0,036.8,030.1,30.1,0000.0,0010.18,0004.56,0004.03
2023-09-14 22:42:00,SystemResetWarning,0833.6,5.00,000.00,028.5,027.1,000.0,036.8,030.1,30.1,0000.0,0009.48,0004.51,0004.02
2023-09-14 22:43:00,SystemResetWarning,0833.6,5.01,000.00,028.5,027.1,000.0,036.8,030.2,30.2,0000.0,0009.35,0004.53,0004.01
2023-09-14 22:44:00,SystemResetWarning,0833.6,5.01,000.00,028.5,027.2,000.0,036.9,030.2,30.3,0000.0,0009.36,0004.51,0004.01
2023-09-14 22:45:00,SystemResetWarning,0833.6,4.99,000.00,028.6,027.2,000.0,036.9,030.2,30.3,0000.0,0009.31,0004.52,0004.00
2023-09-14 22:46:00,SystemResetWarning,0833.6,4.99,000.00,028.6,027.3,000.0,036.9,030.3,30.2,0000.0,0009.20,0004.50,0003.99
2023-09-14 22:47:00,SystemResetWarning,0833.6,5.00,000.00,028.6,027.3,000.0,036.9,030.3,30.3,0000.0,0009.11,0004.51,0003.99
2023-09-14 22:48:00,SystemResetWarning,0833.7,5.00,000.00,028.6,027.3,000.0,036.9,030.3,30.4,0000.0,0008.47,0004.52,0003.99
2023-09-14 22:49:00,SystemResetWarning,0833.7,5.00,000.00,028.6,027.4,000.0,036.9,030.3,30.4,0000.0,0008.40,0004.54,0004.00
2023-09-14 22:50:00,SystemResetWarning,0833.6,5.01,000.00,028.7,027.4,000.0,036.9,030.3,30.4,0000.0,0008.35,0004.51,0003.99
2023-09-14 22:51:00,SystemResetWarning,0833.7,5.00,000.00,028.7,027.4,000.0,036.9,030.4,30.4,0000.0,0008.43,0004.54,0004.00
2023-09-14 22:52:00,SystemResetWarning,0833.7,4.99,000.00,028.7,027.4,000.0,036.9,030.4,30.6,0000.0,0008.53,0004.58,0004.01
2023-09-14 22:53:00,SystemResetWarning,0833.7,4.99,000.00,028.7,027.4,000.0,037.0,030.4,30.7,0000.0,0008.64,0004.63,0004.03
2023-09-14 22:54:00,SystemResetWarning,0833.7,4.99,000.00,028.7,027.5,000.0,037.0,030.4,30.7,0000.0,0008.57,0004.63,0004.06
2023-09-14 22:55:00,SystemResetWarning,0833.7,5.00,000.00,028.8,027.5,000.0,037.0,030.4,30.6,0000.0,0009.07,0004.68,0004.09
2023-09-14 22:56:00,SystemResetWarning,0833.7,5.00,000.00,028.8,027.5,000.0,037.0,030.4,30.6,0000.0,0009.16,0004.68,0004.10
2023-09-14 22:57:00,SystemResetWarning,0833.6,5.00,000.00,028.8,027.5,000.0,037.0,030.5,30.7,0000.0,0009.12,0004.66,0004.11
2023-09-14 22:58:00,SystemResetWarning,0833.7,5.00,000.00,028.8,027.5,000.0,037.1,030.5,30.8,0000.0,0009.02,0004.61,0004.09
2023-09-14 22:59:00,SystemResetWarning,0833.7,5.00,000.00,028.8,027.5,000.0,037.1,030.5,31.0,0000.0,0008.82,0004.56,0004.06
